Location: Hermaringen
(48.5952°N, 10.2585°E)
Time: 21:04:05
(UTC+00:00)

Cosmos 1346 Rocket - Pass Details

Date: 18 November 2025
Orbit: 480 x 491 km, 81.2° (Epoch: 05 December)

Event Time Altitude Azimuth Distance (km) Brightness Sun altitude
Rises 17:34:17 0° 352° (N) 2,589 6.3 -19.3°
Reaches altitude 10° 17:36:28 10° 358° (N) 1,701 5.3 -19.7°
Enters shadow 17:37:49 21° 6° (N) 1,180 4.4 -19.9°
